Location: Kikino
(54.4440°N, 112.0940°W)
Time: 23:16:08
(UTC+00:00)

Vanguard 3 - Pass Details

Date: 29 May 2024
Orbit: 509 x 3231 km, 33.3° (Epoch: 21 June)

Event Time Altitude Azimuth Distance (km) Brightness Sun altitude
Rises 06:44:37 0° 254° (WSW) 5,333 11.3 -13.3°
Reaches altitude 10° 06:53:45 10° 218° (SW) 5,175 10.8 -13.5°
Maximum altitude 06:55:18 10° 212° (SSW) 5,275 10.8 -13.6°
Drops below altitude 10° 06:56:55 10° 206° (SSW) 5,410 10.8 -13.6°
Enters shadow 06:58:50 - 200° (SSW) 5,606 10.9 -13.6°
